Location: Buttermere
(51.3333°N, 1.5167°W)
Time: 03:24:48
(UTC+00:00)

Cosmos 1674 - Visible Passes

Search period start: 18 January 2021 00:00
Search period end: 28 January 2021 00:00
Orbit: 495 x 516 km, 82.5° (Epoch: 17 January)

Date Brightness Start Highest point End Pass type
(mag) Time Alt. Az. Time Alt. Az. Time Alt. Az.
18 Jan 5.3 18:26:36 10° WSW 18:29:28 20° WNW 18:32:22 10° NNW visible
19 Jan 5.0 18:07:58 10° SW 18:11:09 24° WNW 18:14:22 10° NNW visible
20 Jan 4.6 17:49:25 10° SW 17:52:51 30° WNW 17:56:19 10° N visible
21 Jan 4.2 17:30:58 10° SW 17:34:34 38° WNW 17:38:12 10° N visible
22 Jan 3.7 17:12:34 10° SSW 17:16:17 49° WNW 17:20:03 10° N visible
24 Jan 6.0 18:15:38 10° WNW 18:16:00 10° WNW 18:16:21 10° NW visible
25 Jan 5.6 17:55:53 10° W 17:57:37 13° WNW 17:59:20 10° NW visible
26 Jan 5.5 17:36:53 10° WSW 17:39:14 15° WNW 17:41:36 10° NNW visible
27 Jan 5.3 17:18:06 10° WSW 17:20:53 19° WNW 17:23:42 10° NNW visible
